Starlink 11423

operational
NORAD ID: 61950 Int'l Des: 2024-209 Owner: SPXS Country: US Constellation: starlink
LEOCIRCULAR

About Starlink 11423

Description loading...

Live Position

Loading 3D Globe...

Upcoming Passes

Altitude History

Altitude vs Time

uPlot chart will show altitude changes over time

Two-Line Element Set

1 61950U 24209M 25304.66863750 .00372164 00000-0 29298-2 0 9998
2 61950 53.1561 287.2934 0001958 80.1198 280.0041 15.69802362 56456
Epoch: Oct 31, 2025 • Age: 18 hours

Current Status

Altitude 358.0 km
Velocity 7.70 km/s
Sub-Earth Point 10.41°N, 88.5°W
Launch Date Nov 14, 2024
Age 0.9 years
Type internet

Technical Details

Classification Payload
Mass 960.00 kg
Dry Mass 910.00 kg
Total Mass 960.00 kg
Length 0.30 m
Diameter 4.10 m
Span 29.00 m
Shape Box + pan
Manufacturer SPXS
Bus Type Starlink V2MD
Phase Status In Orbit
Owner/State SPXS/US

Large Constellations

Loading constellations...